FDX524 LIMC-VHHH

Flight info

Callsign FDX524
Flight time N/A
Altitude 28000
Route OSKOR DCT NEVNI DCT NOBMI DCT ELTAR DCT BARPI/N0495F290 DCT MAVIT DCT LAMIT DCT ASNEL DCT DINRO N743 UDROS UM859 KARDE UL851 TOLUN/N0493F310 UL851 TBN UM11 REBLO M11 MATAL T916 BALUN/K0913F310 T916 KUNAS N193 SR L163 TISIB L141 MALEX/K0902F330 L141 KAMUD/K0906S1010 W186 SADAN Y1 OMBON W245 OVRAL B330 NIXID/K0913S1070 B330 KWE W181 DUDIT A599 POU R473 SIERA
Aircraft B77L/H-SDE1E2E3FGHIJ2J3J4J5M1RWXY/LB1D1

Departure

Time N/A
Airport Milan Malpensa International Airport (LIMC)

Arrival

Time 2026-05-04 09:38
Airport Hong Kong International Airport (VHHH)
Time Latitude Longitude Altitude Speed Heading
2026-05-04 09:26 21.76298 113.81849 13945 ft 364 kts 38°
2026-05-04 09:26 21.78181 113.83602 13854 ft 348 kts 38°
2026-05-04 09:27 21.79959 113.85283 13585 ft 334 kts 38°
2026-05-04 09:27 21.81641 113.86906 13173 ft 325 kts 39°
2026-05-04 09:27 21.83367 113.88430 12641 ft 316 kts 25°
2026-05-04 09:27 21.85386 113.89161 12025 ft 301 kts 359°
2026-05-04 09:28 21.87431 113.89040 11465 ft 290 kts 341°
2026-05-04 09:28 21.89303 113.88337 10904 ft 282 kts 331°
2026-05-04 09:28 21.91079 113.87454 10347 ft 280 kts 329°
2026-05-04 09:28 21.92831 113.86553 9802 ft 278 kts 330°
2026-05-04 09:29 21.94552 113.85671 9234 ft 276 kts 330°
2026-05-04 09:29 21.96287 113.84788 8676 ft 274 kts 331°
2026-05-04 09:29 21.98001 113.83923 8106 ft 270 kts 331°
2026-05-04 09:29 21.99700 113.83070 7505 ft 268 kts 332°
2026-05-04 09:30 22.01387 113.82223 6916 ft 266 kts 332°
2026-05-04 09:30 22.03061 113.81388 6326 ft 262 kts 332°
2026-05-04 09:30 22.04712 113.80565 5905 ft 260 kts 333°
2026-05-04 09:30 22.06340 113.79754 5632 ft 261 kts 333°
2026-05-04 09:31 22.08001 113.78926 5351 ft 263 kts 333°
2026-05-04 09:31 22.09647 113.78105 5057 ft 258 kts 333°
2026-05-04 09:31 22.11261 113.77300 4777 ft 253 kts 333°
2026-05-04 09:31 22.12841 113.76513 4496 ft 247 kts 333°
2026-05-04 09:32 22.14381 113.75745 4232 ft 241 kts 334°
2026-05-04 09:32 22.15863 113.75004 3979 ft 234 kts 334°
2026-05-04 09:34 22.24943 113.76224 2392 ft 175 kts 62°
2026-05-04 09:34 22.25446 113.77406 2299 ft 177 kts 65°
2026-05-04 09:34 22.25994 113.78598 2124 ft 181 kts 68°
2026-05-04 09:34 22.26424 113.79838 1916 ft 169 kts 72°
2026-05-04 09:35 22.26791 113.80988 1692 ft 158 kts 71°
2026-05-04 09:35 22.27147 113.82100 1510 ft 157 kts 72°
2026-05-04 09:35 22.27507 113.83221 1305 ft 159 kts 72°
2026-05-04 09:35 22.27869 113.84353 1099 ft 159 kts 71°
2026-05-04 09:37 22.30308 113.91922 42 ft 90 kts 70°
2026-05-04 09:37 22.30467 113.92416 42 ft 58 kts 71°
2026-05-04 09:38 22.30509 113.92654 41 ft 27 kts 91°
2026-05-04 09:38 22.30490 113.92787 40 ft 10 kts 108°
2026-05-04 09:38 22.30432 113.92812 41 ft 10 kts 200°
2026-05-04 09:38 22.30392 113.92750 41 ft 10 kts 251°
2026-05-04 09:39 22.30346 113.92696 41 ft 10 kts 195°
2026-05-04 09:39 22.30279 113.92717 41 ft 9 kts 159°
2026-05-04 09:39 22.30233 113.92735 41 ft 7 kts 161°
2026-05-04 09:39 22.30187 113.92736 41 ft 7 kts 191°
2026-05-04 09:40 22.30139 113.92745 41 ft 7 kts 163°
2026-05-04 09:40 22.30118 113.92752 41 ft 4 kts 163°
2026-05-04 09:40 22.30091 113.92761 41 ft 4 kts 161°
2026-05-04 09:40 22.30081 113.92765 41 ft 1 kts 161°
2026-05-04 09:41 22.30077 113.92766 41 ft 0 kts 161°